SWA2718 KTYS-KBNA

Flight info

Callsign SWA2718
Flight time 0h 54m
Altitude 22000
Route EDDDY SWFFT3
Aircraft B738/M-SDE2E3GIJ4RWZ/LB1D1

Departure

Time 2026-05-05 16:23
Airport McGhee Tyson Airport (KTYS)

Arrival

Time 2026-05-05 17:18
Airport Nashville International Airport (KBNA)
Time Latitude Longitude Altitude Speed Heading
2026-05-05 15:51 35.80676 -83.99181 963 ft 0 kts 144°
2026-05-05 16:11 35.80707 -83.99213 965 ft 4 kts 124°
2026-05-05 16:12 35.80716 -83.99241 963 ft 4 kts 83°
2026-05-05 16:12 35.80708 -83.99266 963 ft 1 kts 44°
2026-05-05 16:16 35.80714 -83.99258 964 ft 4 kts 45°
2026-05-05 16:17 35.80805 -83.99147 967 ft 14 kts 45°
2026-05-05 16:17 35.80862 -83.99076 966 ft 8 kts 45°
2026-05-05 16:18 35.80965 -83.99037 963 ft 11 kts 358°
2026-05-05 16:18 35.81036 -83.98980 965 ft 14 kts 46°
2026-05-05 16:18 35.81204 -83.98775 963 ft 17 kts 43°
2026-05-05 16:19 35.81283 -83.98681 962 ft 17 kts 44°
2026-05-05 16:19 35.81372 -83.98572 963 ft 19 kts 45°
2026-05-05 16:19 35.81559 -83.98343 963 ft 16 kts 43°
2026-05-05 16:20 35.81711 -83.98239 961 ft 12 kts 348°
2026-05-05 16:20 35.81853 -83.98359 966 ft 12 kts 328°
2026-05-05 16:21 35.81988 -83.98434 965 ft 10 kts 25°
2026-05-05 16:22 35.82162 -83.98390 964 ft 8 kts 312°
2026-05-05 16:22 35.82167 -83.98435 966 ft 0 kts 221°
2026-05-05 16:23 35.81782 -83.98901 964 ft 111 kts 224°
2026-05-05 16:23 35.81102 -83.99742 1228 ft 150 kts 226°
2026-05-05 16:23 35.79645 -84.01598 2962 ft 157 kts 224°
2026-05-05 16:24 35.78888 -84.02583 3689 ft 162 kts 225°
2026-05-05 16:24 35.78056 -84.03675 4076 ft 189 kts 225°
2026-05-05 16:24 35.76136 -84.06150 5221 ft 205 kts 225°
2026-05-05 16:25 35.75129 -84.07428 5817 ft 208 kts 221°
2026-05-05 16:25 35.72425 -84.08087 6011 ft 228 kts 159°
2026-05-05 16:25 35.71073 -84.06761 6023 ft 270 kts 130°
2026-05-05 16:26 35.70441 -84.02073 7615 ft 293 kts 86°
2026-05-05 16:26 35.71693 -83.97218 9365 ft 311 kts 50°
2026-05-05 16:27 35.73431 -83.95671 10335 ft 311 kts 18°
2026-05-05 16:27 35.75533 -83.95008 11042 ft 318 kts 10°
2026-05-05 16:27 35.77755 -83.94346 11333 ft 341 kts 12°
2026-05-05 16:27 35.80055 -83.93545 11844 ft 352 kts 13°
2026-05-05 16:28 35.82475 -83.93165 12600 ft 349 kts 351°
2026-05-05 16:28 35.84778 -83.93942 13492 ft 341 kts 329°
2026-05-05 16:28 35.86659 -83.95667 14267 ft 336 kts 309°
2026-05-05 16:28 35.87903 -83.98075 14973 ft 333 kts 289°
2026-05-05 16:29 35.88435 -84.00838 15704 ft 333 kts 272°
2026-05-05 16:29 35.88257 -84.03678 16411 ft 334 kts 260°
2026-05-05 16:29 35.87824 -84.06494 17121 ft 337 kts 258°
2026-05-05 16:29 35.87334 -84.09341 17811 ft 340 kts 258°
2026-05-05 16:30 35.86831 -84.12206 18487 ft 343 kts 258°
2026-05-05 16:30 35.86329 -84.15087 19115 ft 345 kts 258°
2026-05-05 16:30 35.85829 -84.17998 19753 ft 347 kts 259°
2026-05-05 16:30 35.85332 -84.20919 20383 ft 349 kts 259°
2026-05-05 16:31 35.84837 -84.23862 20979 ft 352 kts 259°
2026-05-05 16:31 35.84346 -84.26793 21553 ft 355 kts 259°
2026-05-05 16:31 35.83846 -84.29781 21959 ft 355 kts 260°
2026-05-05 16:31 35.83342 -84.32756 21972 ft 359 kts 260°
2026-05-05 16:32 35.82818 -84.35829 21978 ft 373 kts 260°
2026-05-05 16:32 35.82275 -84.39010 21989 ft 386 kts 260°
2026-05-05 16:32 35.81722 -84.42292 21988 ft 394 kts 260°
2026-05-05 16:32 35.81169 -84.45598 21974 ft 393 kts 260°
2026-05-05 16:33 35.80619 -84.48883 21972 ft 390 kts 260°
2026-05-05 16:33 35.80073 -84.52141 21967 ft 388 kts 260°
2026-05-05 16:33 35.79525 -84.55403 21964 ft 387 kts 260°
2026-05-05 16:33 35.78978 -84.58650 21964 ft 387 kts 260°
2026-05-05 16:34 35.78436 -84.61858 21950 ft 375 kts 260°
2026-05-05 16:34 35.77913 -84.64934 21952 ft 359 kts 260°
2026-05-05 16:34 35.77407 -84.67915 21957 ft 354 kts 260°
2026-05-05 16:34 35.76906 -84.70869 21962 ft 352 kts 260°
2026-05-05 16:35 35.76410 -84.73794 21956 ft 354 kts 260°
2026-05-05 16:35 35.75906 -84.76760 21961 ft 354 kts 260°
2026-05-05 16:35 35.75399 -84.79737 21963 ft 355 kts 260°
2026-05-05 16:35 35.74891 -84.82717 21949 ft 355 kts 260°
2026-05-05 16:36 35.74381 -84.85693 21958 ft 354 kts 260°
2026-05-05 16:36 35.73873 -84.88662 21957 ft 355 kts 259°
2026-05-05 16:36 35.73364 -84.91626 21953 ft 354 kts 260°
2026-05-05 16:36 35.72854 -84.94596 21961 ft 354 kts 260°
2026-05-05 16:37 35.72343 -84.97560 21959 ft 354 kts 260°
2026-05-05 16:37 35.71833 -85.00519 21960 ft 353 kts 260°
2026-05-05 16:37 35.71322 -85.03478 21964 ft 354 kts 260°
2026-05-05 16:37 35.70809 -85.06448 21787 ft 357 kts 259°
2026-05-05 16:38 35.70302 -85.09375 21490 ft 352 kts 259°
2026-05-05 16:38 35.69794 -85.12308 21105 ft 348 kts 258°
2026-05-05 16:38 35.69290 -85.15208 20665 ft 345 kts 258°
2026-05-05 16:38 35.68789 -85.18086 20254 ft 343 kts 258°
2026-05-05 16:39 35.68289 -85.20940 19945 ft 338 kts 258°
2026-05-05 16:39 35.67783 -85.23731 19751 ft 332 kts 257°
2026-05-05 16:39 35.67270 -85.26524 19564 ft 339 kts 257°
2026-05-05 16:39 35.66745 -85.29375 19372 ft 345 kts 257°
2026-05-05 16:40 35.66214 -85.32249 19153 ft 345 kts 257°
2026-05-05 16:40 35.65686 -85.35116 18962 ft 342 kts 257°
2026-05-05 16:40 35.65161 -85.37961 18769 ft 340 kts 257°
2026-05-05 16:40 35.64814 -85.39843 18646 ft 339 kts 257°
2026-05-05 16:41 35.64293 -85.42666 18455 ft 338 kts 257°
2026-05-05 16:41 35.63603 -85.46397 18193 ft 337 kts 257°
2026-05-05 16:41 35.63253 -85.48293 18049 ft 336 kts 257°
2026-05-05 16:41 35.62735 -85.51091 17838 ft 335 kts 257°
2026-05-05 16:42 35.62216 -85.53886 17629 ft 334 kts 257°
2026-05-05 16:42 35.61700 -85.56666 17441 ft 333 kts 257°
2026-05-05 16:42 35.61184 -85.59439 17249 ft 333 kts 257°
2026-05-05 16:42 35.60669 -85.62208 17053 ft 332 kts 257°
2026-05-05 16:43 35.60160 -85.64935 16870 ft 332 kts 257°
2026-05-05 16:43 35.59638 -85.67732 16685 ft 331 kts 257°
2026-05-05 16:43 35.59129 -85.70453 16497 ft 331 kts 257°
2026-05-05 16:43 35.58614 -85.73209 16300 ft 331 kts 257°
2026-05-05 16:44 35.58097 -85.75967 16122 ft 330 kts 257°
2026-05-05 16:44 35.57583 -85.78712 15932 ft 330 kts 257°
2026-05-05 16:44 35.57067 -85.81457 15746 ft 330 kts 257°
2026-05-05 16:44 35.56550 -85.84205 15559 ft 329 kts 257°
2026-05-05 16:45 35.56037 -85.86944 15372 ft 329 kts 258°
2026-05-05 16:45 35.55957 -85.89737 15158 ft 330 kts 278°
2026-05-05 16:45 35.56642 -85.92432 14997 ft 332 kts 292°
2026-05-05 16:45 35.57929 -85.94761 14813 ft 337 kts 307°
2026-05-05 16:46 35.59510 -85.96885 14622 ft 337 kts 309°
2026-05-05 16:46 35.61126 -85.98974 14428 ft 337 kts 310°
2026-05-05 16:46 35.62732 -86.01070 14235 ft 337 kts 309°
2026-05-05 16:46 35.64324 -86.03180 14038 ft 336 kts 309°
2026-05-05 16:47 35.65907 -86.05296 13850 ft 336 kts 309°
2026-05-05 16:47 35.67482 -86.07409 13634 ft 335 kts 309°
2026-05-05 16:47 35.69055 -86.09520 13425 ft 334 kts 309°
2026-05-05 16:47 35.70620 -86.11619 13225 ft 331 kts 308°
2026-05-05 16:48 35.72107 -86.13746 13030 ft 324 kts 304°
2026-05-05 16:48 35.73449 -86.15952 12860 ft 319 kts 302°
2026-05-05 16:48 35.74741 -86.18160 12652 ft 316 kts 301°
2026-05-05 16:48 35.76017 -86.20350 12482 ft 314 kts 301°
2026-05-05 16:49 35.77298 -86.22531 12306 ft 314 kts 301°
2026-05-05 16:49 35.78583 -86.24700 12120 ft 313 kts 302°
2026-05-05 16:49 35.79868 -86.26863 11938 ft 313 kts 302°
2026-05-05 16:49 35.81156 -86.29021 11748 ft 313 kts 302°
2026-05-05 16:50 35.82445 -86.31179 11569 ft 311 kts 302°
2026-05-05 16:50 35.83709 -86.33295 11405 ft 309 kts 302°
2026-05-05 16:50 35.84974 -86.35411 11222 ft 305 kts 302°
2026-05-05 16:50 35.86231 -86.37515 11049 ft 303 kts 302°
2026-05-05 16:51 35.87481 -86.39609 10887 ft 302 kts 302°
2026-05-05 16:51 35.88717 -86.41682 10715 ft 297 kts 301°
2026-05-05 16:51 35.89930 -86.43714 10530 ft 291 kts 301°
2026-05-05 16:51 35.91117 -86.45703 10379 ft 285 kts 301°
2026-05-05 16:52 35.92287 -86.47665 10215 ft 283 kts 301°
2026-05-05 16:52 35.93452 -86.49623 10094 ft 283 kts 301°
2026-05-05 16:52 35.94616 -86.51582 9898 ft 283 kts 301°
2026-05-05 16:52 35.95783 -86.53546 9691 ft 284 kts 301°
2026-05-05 16:53 35.96948 -86.55505 9468 ft 281 kts 301°
2026-05-05 16:53 35.98081 -86.57407 9296 ft 274 kts 302°
2026-05-05 16:53 35.99484 -86.58971 9076 ft 274 kts 328°
2026-05-05 16:53 36.01299 -86.59567 8904 ft 270 kts 353°
2026-05-05 16:54 36.03128 -86.59274 8705 ft 263 kts 14°
2026-05-05 16:54 36.04853 -86.58575 8525 ft 258 kts 16°
2026-05-05 16:54 36.06527 -86.57880 8338 ft 248 kts 15°
2026-05-05 16:54 36.08132 -86.57223 8162 ft 238 kts 15°
2026-05-05 16:55 36.09696 -86.56589 8007 ft 235 kts 15°
2026-05-05 16:55 36.11247 -86.56009 7900 ft 230 kts 13°
2026-05-05 16:55 36.12807 -86.55494 7750 ft 236 kts 13°
2026-05-05 16:55 36.14386 -86.54876 7540 ft 239 kts 16°
2026-05-05 16:56 36.15965 -86.54220 7323 ft 237 kts 16°
2026-05-05 16:56 36.17508 -86.53572 7091 ft 232 kts 17°
2026-05-05 16:56 36.19013 -86.52937 6861 ft 225 kts 17°
2026-05-05 16:56 36.20480 -86.52317 6636 ft 220 kts 17°
2026-05-05 16:57 36.21897 -86.51716 6422 ft 217 kts 16°
2026-05-05 16:57 36.23322 -86.51103 6176 ft 216 kts 17°
2026-05-05 16:57 36.24749 -86.50497 5912 ft 217 kts 17°
2026-05-05 16:57 36.26173 -86.49890 5666 ft 216 kts 17°
2026-05-05 16:58 36.27593 -86.49272 5421 ft 216 kts 17°
2026-05-05 16:58 36.29030 -86.48707 5172 ft 216 kts
2026-05-05 16:58 36.30415 -86.49022 4884 ft 195 kts 316°
2026-05-05 16:58 36.31066 -86.50303 4628 ft 169 kts 270°
2026-05-05 16:59 36.31198 -86.51742 4416 ft 168 kts 265°
2026-05-05 16:59 36.31102 -86.53171 4199 ft 166 kts 255°
2026-05-05 16:59 36.30926 -86.54606 4044 ft 169 kts 256°
2026-05-05 16:59 36.30750 -86.56052 4017 ft 171 kts 255°
2026-05-05 17:00 36.30520 -86.57481 3947 ft 166 kts 243°
2026-05-05 17:00 36.29907 -86.58641 3834 ft 157 kts 225°
2026-05-05 17:00 36.29032 -86.59397 3773 ft 154 kts 205°
2026-05-05 17:00 36.28020 -86.59940 3572 ft 159 kts 204°
2026-05-05 17:01 36.26987 -86.60425 3372 ft 153 kts 201°
2026-05-05 17:01 36.26014 -86.60835 3143 ft 143 kts 201°
2026-05-05 17:01 36.25092 -86.61211 2982 ft 138 kts 200°
2026-05-05 17:01 36.24188 -86.61575 2786 ft 135 kts 200°
2026-05-05 17:02 36.23286 -86.61939 2598 ft 141 kts 198°
2026-05-05 17:02 36.22367 -86.62309 2467 ft 139 kts 198°
2026-05-05 17:02 36.21427 -86.62688 2231 ft 141 kts 198°
2026-05-05 17:02 36.20511 -86.63054 2064 ft 136 kts 199°
2026-05-05 17:03 36.19605 -86.63417 1863 ft 137 kts 199°
2026-05-05 17:03 36.18712 -86.63777 1712 ft 133 kts 199°
2026-05-05 17:03 36.17827 -86.64153 1515 ft 135 kts 198°
2026-05-05 17:03 36.16926 -86.64499 1336 ft 135 kts 197°
2026-05-05 17:04 36.16020 -86.64878 1182 ft 137 kts 198°
2026-05-05 17:04 36.15101 -86.65229 1007 ft 141 kts 199°
2026-05-05 17:04 36.14163 -86.65606 833 ft 143 kts 197°
2026-05-05 17:04 36.13205 -86.65993 614 ft 144 kts 198°
2026-05-05 17:05 36.12316 -86.66343 599 ft 120 kts 201°
2026-05-05 17:05 36.11471 -86.66733 994 ft 133 kts 199°
2026-05-05 17:05 36.10629 -86.66963 1530 ft 136 kts 183°
2026-05-05 17:05 36.09552 -86.66781 1945 ft 168 kts 167°
2026-05-05 17:06 36.08542 -86.66110 2329 ft 169 kts 149°
2026-05-05 17:06 36.07612 -86.65041 2438 ft 196 kts 134°
2026-05-05 17:06 36.06971 -86.63476 2656 ft 218 kts 105°
2026-05-05 17:06 36.07131 -86.61570 2953 ft 234 kts 71°
2026-05-05 17:07 36.08091 -86.59932 3239 ft 247 kts 43°
2026-05-05 17:07 36.09492 -86.58599 3450 ft 262 kts 33°
2026-05-05 17:07 36.11090 -86.57422 3733 ft 272 kts 29°
2026-05-05 17:07 36.12861 -86.56460 3975 ft 285 kts 21°
2026-05-05 17:08 36.14767 -86.55515 3981 ft 301 kts 21°
2026-05-05 17:08 36.16692 -86.54549 3960 ft 293 kts 24°
2026-05-05 17:08 36.18259 -86.53048 3999 ft 282 kts 58°
2026-05-05 17:08 36.19015 -86.50899 3969 ft 265 kts 75°
2026-05-05 17:09 36.19597 -86.48783 3952 ft 254 kts 75°
2026-05-05 17:09 36.20168 -86.46764 3974 ft 247 kts 74°
2026-05-05 17:09 36.20744 -86.44758 3974 ft 246 kts 74°
2026-05-05 17:09 36.21515 -86.42892 3920 ft 249 kts 37°
2026-05-05 17:10 36.23059 -86.42072 3964 ft 244 kts
2026-05-05 17:10 36.24653 -86.42497 4002 ft 232 kts 321°
2026-05-05 17:10 36.25633 -86.43947 3979 ft 213 kts 281°
2026-05-05 17:10 36.25731 -86.45652 3993 ft 192 kts 263°
2026-05-05 17:11 36.25714 -86.47247 3971 ft 186 kts 274°
2026-05-05 17:11 36.26416 -86.48610 4015 ft 197 kts 311°
2026-05-05 17:11 36.27353 -86.49854 3978 ft 195 kts 298°
2026-05-05 17:11 36.28044 -86.51280 3977 ft 192 kts 289°
2026-05-05 17:12 36.28585 -86.52784 3985 ft 190 kts 284°
2026-05-05 17:12 36.29003 -86.54304 3973 ft 188 kts 279°
2026-05-05 17:12 36.29360 -86.55860 3977 ft 188 kts 282°
2026-05-05 17:12 36.29734 -86.57394 3885 ft 181 kts 265°
2026-05-05 17:13 36.29308 -86.58669 3802 ft 154 kts 217°
2026-05-05 17:13 36.28439 -86.59344 3664 ft 146 kts 210°
2026-05-05 17:13 36.27530 -86.59917 3472 ft 148 kts 206°
2026-05-05 17:13 36.26594 -86.60456 3306 ft 145 kts 206°
2026-05-05 17:14 36.25689 -86.60919 3089 ft 138 kts 204°
2026-05-05 17:14 36.24806 -86.61311 2915 ft 134 kts 200°
2026-05-05 17:14 36.23923 -86.61678 2752 ft 135 kts 199°
2026-05-05 17:14 36.23010 -86.62049 2546 ft 139 kts 198°
2026-05-05 17:15 36.22096 -86.62417 2365 ft 138 kts 199°
2026-05-05 17:15 36.21191 -86.62781 2170 ft 137 kts 198°
2026-05-05 17:15 36.20317 -86.63132 2032 ft 132 kts 199°
2026-05-05 17:15 36.19433 -86.63487 1849 ft 134 kts 198°
2026-05-05 17:16 36.18546 -86.63845 1678 ft 133 kts 199°
2026-05-05 17:16 36.17659 -86.64202 1472 ft 135 kts 197°
2026-05-05 17:16 36.16762 -86.64557 1290 ft 136 kts 197°
2026-05-05 17:16 36.15848 -86.64919 1143 ft 140 kts 199°
2026-05-05 17:17 36.14914 -86.65309 942 ft 144 kts 200°
2026-05-05 17:17 36.13952 -86.65694 747 ft 150 kts 196°
2026-05-05 17:17 36.12951 -86.66103 572 ft 141 kts 198°
2026-05-05 17:17 36.12223 -86.66387 574 ft 68 kts 198°
2026-05-05 17:18 36.11964 -86.66491 574 ft 22 kts 198°
2026-05-05 17:18 36.11847 -86.66545 578 ft 13 kts 218°
2026-05-05 17:18 36.11853 -86.66640 578 ft 9 kts 300°
2026-05-05 17:18 36.11912 -86.66656 576 ft 9 kts 12°
2026-05-05 17:19 36.11972 -86.66633 574 ft 9 kts 19°
2026-05-05 17:19 36.12032 -86.66607 576 ft 10 kts 19°
2026-05-05 17:19 36.12105 -86.66577 573 ft 11 kts 19°
2026-05-05 17:19 36.12187 -86.66544 577 ft 13 kts 17°
2026-05-05 17:20 36.12250 -86.66527 575 ft 9 kts 354°
2026-05-05 17:20 36.12289 -86.66579 573 ft 9 kts 285°
2026-05-05 17:20 36.12309 -86.66656 579 ft 10 kts 289°
2026-05-05 17:20 36.12333 -86.66742 575 ft 11 kts 289°
2026-05-05 17:21 36.12362 -86.66836 575 ft 12 kts 299°
2026-05-05 17:21 36.12418 -86.66919 574 ft 10 kts 313°
2026-05-05 17:21 36.12480 -86.66958 575 ft 11 kts
2026-05-05 17:22 36.12622 -86.66858 578 ft 13 kts 28°
2026-05-05 17:22 36.12695 -86.66794 577 ft 12 kts 41°
2026-05-05 17:22 36.12766 -86.66740 574 ft 12 kts 14°
2026-05-05 17:22 36.12842 -86.66752 580 ft 8 kts 333°
2026-05-05 17:23 36.12867 -86.66775 575 ft 4 kts 315°
2026-05-05 17:23 36.12891 -86.66792 574 ft 4 kts
2026-05-05 17:23 36.12907 -86.66778 576 ft 2 kts 38°
2026-05-05 17:23 36.12917 -86.66768 574 ft 2 kts 39°
2026-05-05 17:24 36.12926 -86.66759 580 ft 2 kts 39°
2026-05-05 17:24 36.12929 -86.66756 577 ft 0 kts 38°